Location: Baix
(44.7118°N, 4.7648°E)
Time: 07:40:20
(UTC+00:00)

Vanguard 1 - Pass Details

Date: 03 December 2020
Orbit: 648 x 3834 km, 34.3° (Epoch: 21 January)

Event Time Altitude Azimuth Distance (km) Brightness Sun altitude
Rises 03:02:44 0° 216° (SW) 3,003 - -41.4°
Reaches altitude 10° 03:05:24 10° 197° (SSW) 2,226 - -40.9°
Maximum altitude 03:08:58 19° 151° (SSE) 1,931 - -40.3°
Exits shadow 03:10:18 18° 134° (SE) 2,118 12.0 -40.1°
Drops below altitude 10° 03:13:34 10° 108° (ESE) 2,988 13.1 -39.5°
Sets 03:17:56 0° 93° (E) 4,480 14.3 -38.7°
